This is the latest recevied weather packets stored in our database for station/object K7SPS-10. If no packets are shown the sender has not sent any weather packets the latest 10 day(s).
| Time | Temp. | Humidity | Pressure | Rain* | Wind** | Luminosity | Snow |
|---|---|---|---|---|---|---|---|
| 1778381201 | 22.22° C | 30% | 1017.4 hPa | 0 mm | - | 8 W/m² | - |
| 1778380898 | 22.22° C | 29% | 1017.1 hPa | 0 mm | - | 12 W/m² | - |
| 1778380593 | 23.33° C | 27% | 1017 hPa | 0 mm | - | 15 W/m² | - |
| 1778380291 | 23.89° C | 26% | 1017.1 hPa | 0 mm | - | 20 W/m² | - |
| 1778379991 | 24.44° C | 25% | 1016.8 hPa | 0 mm | - | 24 W/m² | - |
| 1778379686 | 24.44° C | 25% | 1017.3 hPa | 0 mm | - | 27 W/m² | - |
| 1778379382 | 24.44° C | 25% | 1017 hPa | 0 mm | - | 29 W/m² | - |
| 1778379080 | 25° C | 25% | 1017.3 hPa | 0 mm | - | 34 W/m² | - |
| 1778378773 | 25.56° C | 26% | 1017 hPa | 0 mm | - | 38 W/m² | - |
| 1778378469 | 26.11° C | 26% | 1017.3 hPa | 0 mm | - | 41 W/m² | - |
| 1778378166 | 26.67° C | 22% | 1017.1 hPa | 0 mm | - | 50 W/m² | - |
| 1778377862 | 26.67° C | 23% | 1017.3 hPa | 0 mm | - | 59 W/m² | - |
| 1778377558 | 26.11° C | 22% | 1017.1 hPa | 0 mm | - | 57 W/m² | - |
| 1778377255 | 26.11° C | 22% | 1017.3 hPa | 0 mm | - | 76 W/m² | - |
| 1778376950 | 26.67° C | 23% | 1017.5 hPa | 0 mm | - | 83 W/m² | - |
| 1778376646 | 27.78° C | 22% | 1017.7 hPa | 0 mm | - | 97 W/m² | - |
| 1778376345 | 27.22° C | 22% | 1017.6 hPa | 0 mm | - | 112 W/m² | - |
| 1778376043 | 26.11° C | 22% | 1017.6 hPa | 0 mm | - | 124 W/m² | - |
| 1778375742 | 26.67° C | 21% | 1017.6 hPa | 0 mm | - | 132 W/m² | - |
| 1778375438 | 26.11° C | 22% | 1017.7 hPa | 0 mm | - | 139 W/m² | - |
| 1778375135 | 26.67° C | 25% | 1017.8 hPa | 0 mm | - | 151 W/m² | - |
| 1778374832 | 26.67° C | 22% | 1017.6 hPa | 0 mm | - | 168 W/m² | - |
| 1778374527 | 26.67° C | 22% | 1017.5 hPa | 0 mm | - | 183 W/m² | - |
| 1778374225 | 26.67° C | 22% | 1017.8 hPa | 0 mm | - | 194 W/m² | - |
| 1778373923 | 26.11° C | 25% | 1017.8 hPa | 0 mm | - | 201 W/m² | - |
* Rain latest hour (hover to see other rain measurements)
** Current wind speed in m/s (hover to see current wind gust speed)